Location: Diebersbach
(48.5163°N, 8.0558°E)
Time: 01:45:43
(UTC+00:00)

Cosmos 1825 - Pass Details

Date: 06 November 2021
Orbit: 501 x 504 km, 82.5° (Epoch: 01 December)

Event Time Altitude Azimuth Distance (km) Brightness Sun altitude
Rises 16:58:14 0° 349° (N) 2,613 5.8 -9.9°
Reaches altitude 10° 17:00:21 10° 349° (NNW) 1,724 4.8 -10.3°
Maximum altitude 17:04:08 82° 263° (W) 516 2.2 -10.9°
Drops below altitude 10° 17:07:53 10° 175° (S) 1,711 4.9 -11.5°
Sets 17:09:59 0° 174° (S) 2,590 5.8 -11.8°
